EW6005 Weather Reports


time (UTC)temp
C
wind
direction
speed
KPH
gust
KPH
rain 1hr
cm
rain 24hr
cm
rain mn
cm
humidity
%
barometer
mb
20260509224459 30 331 0.0 0.0 0.00 0.00 0.00 75 993.5
20260509223727 30 0 0.0 0.0 0.00 0.00 0.00 75 993.4
20260509223500 31 0 0.0 0.0 0.00 0.00 0.00 74 993.3
20260509222953 31 0 0.0 3.2 0.00 0.00 0.00 74 993.4
20260509222227 31 332 1.6 4.8 0.00 0.00 0.00 74 993.2
20260509221728 31 341 1.6 4.8 0.00 0.00 0.00 74 993.2
20260509221452 31 53 0.0 3.2 0.00 0.00 0.00 74 993.2
20260509220725 31 52 0.0 3.2 0.00 0.00 0.00 75 993.2
20260509220223 31 9 0.0 3.2 0.00 0.00 0.00 75 993.3
20260509215809 31 207 0.0 0.0 0.00 0.00 0.00 73 993.3
20260509214939 31 157 0.0 0.0 0.00 0.00 0.00 74 993.3
20260509214308 31 180 0.0 0.0 0.00 0.00 0.00 73 993.3
20260509213213 31 135 0.0 0.0 0.00 0.00 0.00 71 993.3
20260509212714 31 135 0.0 0.0 0.00 0.00 0.00 73 993.3
20260509212437 31 135 0.0 0.0 0.00 0.00 0.00 73 993.3
20260509211714 31 48 0.0 3.2 0.00 0.00 0.00 72 993.3
20260509211215 31 120 0.0 3.2 0.00 0.00 0.00 73 993.4
20260509210713 31 20 0.0 6.4 0.00 0.00 0.00 72 993.5
20260509210213 31 49 1.6 8.0 0.00 0.00 0.00 72 993.5
20260509205709 31 31 1.6 8.0 0.00 0.00 0.00 72 993.6
20260509205211 31 332 0.0 6.4 0.00 0.00 0.00 73 993.6
20260509204710 31 123 1.6 6.4 0.00 0.00 0.00 73 993.7
20260509204208 31 290 0.0 3.2 0.00 0.00 0.00 73 993.8
20260509203710 31 183 0.0 1.6 0.00 0.00 0.00 75 993.9
20260509203209 31 183 0.0 6.4 0.00 0.00 0.00 73 993.9
20260509202711 31 126 0.0 6.4 0.00 0.00 0.00 74 993.9
20260509202209 31 185 1.6 6.4 0.00 0.00 0.00 74 994.0
20260509201709 30 201 1.6 6.4 0.00 0.00 0.00 73 994.0
20260509201434 31 200 1.6 6.4 0.00 0.00 0.00 73 994.0
20260509200709 31 300 1.6 4.8 0.00 0.00 0.00 75 994.1
20260509200207 30 302 1.6 8.0 0.00 0.00 0.00 75 994.2
20260509195707 30 135 1.6 8.0 0.00 0.00 0.00 75 994.2
20260509195426 30 194 0.0 8.0 0.00 0.00 0.00 74 994.3
20260509194705 30 9 0.0 3.2 0.00 0.00 0.00 75 994.4
20260509194205 31 15 1.6 4.8 0.00 0.00 0.00 76 994.5
20260509193706 31 10 1.6 9.7 0.00 0.00 0.00 76 994.5
20260509193205 31 165 1.6 9.7 0.00 0.00 0.00 76 994.6
20260509192705 31 177 1.6 6.4 0.00 0.00 0.00 75 994.7
20260509192432 31 203 1.6 4.8 0.00 0.00 0.00 76 994.5
20260509191706 30 103 1.6 4.8 0.00 0.00 0.00 78 994.6
20260509191206 30 144 1.6 4.8 0.00 0.00 0.00 78 994.7
20260509190707 30 161 1.6 3.2 0.00 0.00 0.00 78 994.8
20260509190205 30 150 0.0 4.8 0.00 0.00 0.00 79 994.8
20260509185705 30 10 0.0 4.8 0.00 0.00 0.00 78 995.0
20260509185426 30 144 0.0 4.8 0.00 0.00 0.00 78 995.1
20260509184705 30 182 1.6 4.8 0.00 0.00 0.00 78 995.1
20260509184205 30 182 1.6 4.8 0.00 0.00 0.00 78 995.2
20260509183705 30 288 1.6 6.4 0.00 0.00 0.00 78 995.2
20260509183205 30 185 1.6 6.4 0.00 0.00 0.00 79 995.2
20260509182932 30 231 1.6 4.8 0.00 0.00 0.00 79 995.3
20260509182424 30 215 1.6 3.2 0.00 0.00 0.00 80 995.4
20260509181706 29 260 1.6 3.2 0.00 0.00 0.00 81 995.5
20260509181204 29 186 1.6 3.2 0.00 0.00 0.00 81 995.6
20260509180705 29 326 1.6 9.7 0.00 0.00 0.00 82 995.7
20260509180201 29 109 3.2 9.7 0.00 0.00 0.00 81 995.8
20260509175924 28 155 1.6 6.4 0.00 0.00 0.00 84 995.9
20260509175200 28 194 0.0 4.8 0.00 0.00 0.00 85 995.9
20260509174701 28 176 0.0 3.2 0.00 0.00 0.00 84 995.9
20260509174420 28 119 0.0 3.2 0.00 0.00 0.00 85 995.9
20260509173918 28 70 0.0 3.2 0.00 0.00 0.00 85 996.0
20260509173645 28 190 0.0 1.6 0.00 0.00 0.00 87 995.9
20260509172702 28 308 0.0 1.6 0.00 0.00 0.00 87 996.0
20260509172201 28 308 0.0 1.6 0.00 0.00 0.00 87 996.0
20260509171701 28 45 0.0 1.6 0.00 0.00 0.00 87 995.8
20260509171201 28 45 0.0 1.6 0.00 0.00 0.00 88 995.9
20260509170701 27 0 0.0 1.6 0.00 0.00 0.00 88 995.9
20260509170646 27 0 1.6 3.2 0.00 0.00 0.00 88 995.8
20260509165702 27 0 1.6 3.2 0.00 0.00 0.00 88 995.9
20260509165201 27 0 1.6 3.2 0.00 0.00 0.00 89 996.0
20260509164700 27 0 0.0 3.2 0.00 0.00 0.00 90 996.0
20260509164201 27 0 0.0 3.2 0.00 0.00 0.00 91 995.9
20260509163658 27 0 1.6 3.2 0.00 0.00 0.00 92 995.9
20260509163153 26 34 0.0 3.2 0.00 0.00 0.00 91 995.8
20260509162915 26 0 1.6 8.0 0.00 0.00 0.00 92 995.7
20260509162153 26 0 3.2 8.0 0.00 0.00 0.00 93 995.7
20260509161652 26 188 1.6 6.4 0.00 0.00 0.00 93 995.8
20260509161153 26 148 0.0 6.4 0.00 0.00 0.00 93 996.0
20260509160653 25 146 1.6 8.0 0.00 0.00 0.00 94 996.1
20260509160153 25 207 3.2 9.7 0.00 0.00 0.00 93 996.1
20260509155653 25 217 3.2 9.7 0.00 0.00 0.00 93 996.1
20260509155414 25 172 1.6 6.4 0.00 0.00 0.00 94 996.3
20260509155133 25 173 1.6 6.4 0.00 0.00 0.00 94 996.5
20260509154411 25 159 1.6 6.4 0.00 0.00 0.00 95 996.3
20260509153739 25 190 1.6 6.4 0.00 0.00 0.00 95 996.3
20260509152650 25 163 1.6 6.4 0.00 0.00 0.00 96 996.3
20260509152149 25 171 1.6 6.4 0.00 0.00 0.00 96 996.2
20260509152145 25 189 0.0 0.0 0.00 0.00 0.00 97 996.3
20260509151148 25 189 0.0 0.0 0.00 0.00 0.00 97 996.3
20260509150649 25 189 0.0 4.8 0.00 0.00 0.00 97 996.3
20260509150144 25 167 0.0 4.8 0.00 0.00 0.00 97 996.2
20260509145644 25 203 0.0 3.2 0.00 0.00 0.00 98 996.2
20260509145404 25 195 0.0 3.2 0.00 0.00 0.00 98 996.1
20260509144643 24 196 0.0 1.6 0.00 0.00 0.00 98 996.2
20260509144402 24 196 0.0 3.2 0.00 0.00 0.00 98 996.1
20260509143900 24 196 0.0 3.2 0.00 0.00 0.00 98 995.9
20260509143138 24 196 0.0 3.2 0.00 0.00 0.00 98 995.9
20260509142638 24 174 0.0 1.6 0.00 0.00 0.00 98 995.9
20260509142137 24 174 0.0 1.6 0.00 0.00 0.00 98 995.7
20260509141637 24 174 0.0 1.6 0.00 0.00 0.00 98 995.6
20260509141135 24 174 0.0 1.6 0.00 0.00 0.00 98 995.5
20260509140635 24 251 0.0 1.6 0.00 0.00 0.00 98 995.5
20260509140130 24 251 1.6 3.2 0.00 0.00 0.00 98 995.6
20260509135631 24 207 0.0 3.2 0.00 0.00 0.00 98 995.9
20260509135359 24 221 0.0 1.6 0.00 0.00 0.00 98 995.9
20260509134630 24 223 0.0 0.0 0.00 0.00 0.00 98 995.8
20260509134128 24 223 0.0 1.6 0.00 0.00 0.00 98 996.0
20260509133629 24 223 0.0 1.6 0.00 0.00 0.00 98 996.2
20260509133127 23 109 0.0 1.6 0.00 0.00 0.00 99 996.3
20260509132627 23 109 0.0 1.6 0.00 0.00 0.00 99 996.1
20260509132127 23 179 0.0 1.6 0.00 0.00 0.00 99 996.1
20260509131626 23 179 0.0 1.6 0.00 0.00 0.00 99 996.2
20260509131129 23 179 0.0 1.6 0.00 0.00 0.00 99 996.2
20260509130624 23 179 0.0 1.6 0.00 0.00 0.00 98 996.2
20260509130124 23 179 0.0 0.0 0.00 0.00 0.00 98 996.1
20260509125624 23 179 0.0 0.0 0.00 0.00 0.00 99 996.1
20260509125122 23 179 0.0 0.0 0.00 0.00 0.00 98 996.2
20260509124623 23 179 0.0 0.0 0.00 0.00 0.00 99 996.0
20260509124122 23 179 0.0 0.0 0.00 0.00 0.00 99 996.0
20260509124114 23 179 0.0 0.0 0.00 0.00 0.00 98 996.1
20260509123121 23 0 0.0 0.0 0.00 0.00 0.00 98 996.1
20260509122618 23 0 0.0 0.0 0.00 0.00 0.00 98 996.0
20260509122116 23 0 0.0 0.0 0.00 0.00 0.00 98 996.1
20260509122059 23 0 0.0 0.0 0.00 0.00 0.00 98 996.0
20260509121111 23 0 0.0 0.0 0.00 0.00 0.00 98 996.0
20260509120610 23 179 0.0 0.0 0.00 0.00 0.00 98 996.0
20260509120107 23 179 0.0 0.0 0.00 0.00 0.00 98 995.8
20260509115602 23 179 0.0 1.6 0.00 0.00 0.00 98 995.7
20260509115103 23 179 1.6 4.8 0.00 0.00 0.00 98 995.5
20260509114603 23 179 1.6 4.8 0.00 0.00 0.00 98 995.5
20260509114102 23 201 0.0 4.8 0.00 0.00 0.00 98 995.5
20260509113602 23 205 0.0 0.0 0.00 0.00 0.00 98 995.5
20260509113059 23 205 0.0 0.0 0.00 0.00 0.00 98 995.6
20260509112600 23 205 0.0 0.0 0.00 0.00 0.00 98 995.5
20260509112058 23 205 0.0 0.0 0.00 0.00 0.00 98 995.5
20260509111825 23 205 0.0 0.0 0.00 0.00 0.00 98 995.6
20260509111059 23 205 0.0 0.0 0.00 0.00 0.00 98 995.7
20260509110558 23 205 0.0 1.6 0.00 0.00 0.00 98 995.6
20260509110059 23 205 0.0 1.6 0.00 0.00 0.00 98 995.6
20260509105821 23 205 0.0 0.0 0.00 0.00 0.00 98 995.6
20260509105054 23 205 0.0 0.0 0.00 0.00 0.00 98 995.7
20260509104552 23 205 0.0 0.0 0.00 0.00 0.00 98 995.7
20260509104049 23 205 0.0 0.0 0.00 0.00 0.00 98 995.8
20260509104031 23 205 0.0 0.0 0.00 0.00 0.00 98 995.8
20260509103050 23 0 0.0 0.0 0.00 0.00 0.00 98 995.9
20260509102551 23 204 0.0 0.0 0.00 0.00 0.00 98 995.7
20260509102050 23 204 0.0 0.0 0.00 0.00 0.00 98 995.5
20260509101550 23 204 0.0 0.0 0.00 0.00 0.00 98 995.4
20260509101050 23 0 0.0 0.0 0.00 0.00 0.00 98 995.4
20260509100550 23 204 0.0 0.0 0.00 0.00 0.00 98 995.3
20260509100046 23 0 0.0 0.0 0.00 0.00 0.00 97 995.2
20260509095548 23 0 0.0 0.0 0.00 0.00 0.00 97 995.1
20260509095046 23 204 0.0 0.0 0.00 0.00 0.00 97 995.0
20260509094546 23 204 0.0 0.0 0.00 0.00 0.00 97 995.1
20260509094046 23 204 0.0 0.0 0.00 0.00 0.00 97 995.0
20260509093546 23 205 0.0 0.0 0.00 0.00 0.00 97 995.1
20260509093047 23 205 0.0 0.0 0.00 0.00 0.00 97 995.3
20260509092546 23 205 0.0 0.0 0.00 0.00 0.00 97 995.4
20260509092046 23 0 0.0 0.0 0.00 0.00 0.00 97 995.4
20260509091546 23 0 0.0 0.0 0.00 0.00 0.00 97 995.4
20260509091048 23 204 0.0 0.0 0.00 0.00 0.00 97 995.3
20260509090546 23 204 0.0 0.0 0.00 0.00 0.00 97 995.3
20260509090046 23 204 0.0 0.0 0.00 0.00 0.00 97 995.5
20260509085546 23 204 0.0 0.0 0.00 0.00 0.00 97 995.5
20260509085316 23 205 0.0 0.0 0.00 0.00 0.00 97 995.5
20260509084546 23 205 0.0 0.0 0.00 0.00 0.00 97 995.6
20260509084046 23 205 0.0 0.0 0.00 0.00 0.00 97 995.7
20260509083546 23 205 0.0 0.0 0.00 0.00 0.00 97 995.6
20260509083046 23 205 0.0 0.0 0.00 0.00 0.00 97 995.6
20260509082546 23 205 0.0 0.0 0.00 0.00 0.00 97 995.7
20260509082046 23 205 0.0 0.0 0.00 0.00 0.00 97 995.8
20260509081546 23 205 0.0 0.0 0.00 0.00 0.00 97 995.8
20260509081045 23 205 0.0 0.0 0.00 0.00 0.00 97 995.7
20260509080545 23 0 0.0 0.0 0.00 0.00 0.00 97 995.6
20260509080046 23 205 0.0 0.0 0.00 0.00 0.00 97 995.5
20260509075546 23 205 0.0 0.0 0.00 0.00 0.00 97 995.6
20260509075048 23 205 0.0 0.0 0.00 0.00 0.00 96 995.6
20260509074548 23 205 0.0 0.0 0.00 0.00 0.00 96 995.6
20260509074048 23 205 0.0 0.0 0.00 0.00 0.00 96 995.5
20260509073549 23 205 0.0 0.0 0.00 0.00 0.00 96 995.3
20260509073047 23 205 0.0 0.0 0.00 0.00 0.00 96 995.2
20260509072550 23 205 0.0 0.0 0.00 0.00 0.00 96 995.3
20260509072305 23 205 0.0 0.0 0.00 0.00 0.00 96 995.4
20260509071801 23 205 0.0 0.0 0.00 0.00 0.00 96 995.5
20260509071306 23 205 0.0 0.0 0.00 0.00 0.00 96 995.4
20260509070542 23 205 0.0 0.0 0.00 0.00 0.00 96 995.4
20260509070043 23 205 0.0 0.0 0.00 0.00 0.00 96 995.5
20260509065541 23 205 0.0 0.0 0.00 0.00 0.00 96 995.5
20260509065041 23 205 0.0 0.0 0.00 0.00 0.00 96 995.5
20260509064542 23 205 0.0 1.6 0.00 0.00 0.00 96 995.5
20260509064042 23 67 0.0 1.6 0.00 0.00 0.00 96 995.5
20260509063538 23 67 0.0 1.6 0.00 0.00 0.00 96 995.5
20260509063038 23 67 0.0 1.6 0.00 0.00 0.00 96 995.5
20260509062539 23 341 0.0 1.6 0.00 0.00 0.00 96 995.4
20260509062038 23 341 0.0 0.0 0.00 0.00 0.00 96 995.6
20260509061538 23 341 0.0 0.0 0.00 0.00 0.00 96 995.7
20260509061039 23 341 0.0 0.0 0.00 0.00 0.00 96 995.8
20260509060538 23 342 0.0 0.0 0.00 0.00 0.00 96 995.9
20260509060256 23 342 0.0 0.0 0.00 0.00 0.00 96 995.9
20260509055801 23 342 0.0 0.0 0.00 0.00 0.00 96 995.9
20260509055038 23 342 0.0 0.0 0.00 0.00 0.00 96 995.8
20260509054539 23 342 0.0 1.6 0.00 0.00 0.00 96 996.0
20260509054038 23 342 0.0 1.6 0.00 0.00 0.00 95 996.0
20260509053538 23 342 0.0 1.6 0.00 0.00 0.00 95 996.0
20260509053038 23 342 0.0 1.6 0.00 0.00 0.00 95 995.9
20260509052537 23 343 0.0 0.0 0.00 0.00 0.00 95 996.0
20260509052306 23 343 0.0 0.0 0.00 0.00 0.00 95 996.0
20260509051536 23 343 0.0 1.6 0.00 0.00 0.00 95 996.0
20260509051036 23 343 0.0 1.6 0.00 0.00 0.00 95 996.0
20260509050532 23 0 0.0 4.8 0.00 0.00 0.00 95 995.9
20260509050029 23 0 0.0 4.8 0.00 0.00 0.00 95 995.9
20260509045525 23 0 0.0 3.2 0.00 0.00 0.00 95 995.9
20260509045240 23 0 0.0 3.2 0.00 0.00 0.00 95 996.0
20260509044743 23 0 0.0 0.0 0.00 0.00 0.00 95 996.0
20260509044023 23 0 0.0 0.0 0.00 0.00 0.00 95 996.1
20260509043745 23 0 0.0 0.0 0.00 0.00 0.00 95 996.1
20260509043020 23 0 0.0 0.0 0.00 0.00 0.00 95 995.9
20260509042520 23 0 0.0 0.0 0.00 0.00 0.00 95 995.8
20260509042516 23 0 0.0 0.0 0.00 0.00 0.00 94 996.0
20260509041519 23 0 0.0 0.0 0.00 0.00 0.00 94 996.1
20260509041019 23 0 0.0 0.0 0.00 0.00 0.00 94 996.0
20260509040514 23 0 0.0 0.0 0.00 0.00 0.00 94 996.0
20260509040014 23 0 0.0 0.0 0.00 0.00 0.00 94 996.0
20260509035514 23 0 0.0 3.2 0.00 0.00 0.00 94 995.8
20260509035014 23 0 0.0 4.8 0.00 0.00 0.00 94 995.7
20260509034516 23 0 0.0 4.8 0.00 0.00 0.00 94 995.7
20260509034015 23 0 0.0 1.6 0.00 0.00 0.00 94 995.7
20260509033516 23 0 0.0 3.2 0.00 0.00 0.00 94 995.8
20260509033014 23 0 0.0 3.2 0.00 0.00 0.00 94 995.8
20260509032515 23 0 0.0 3.2 0.00 0.00 0.00 94 995.7
20260509032234 23 0 0.0 3.2 0.00 0.00 0.00 94 995.7
20260509031514 23 0 0.0 1.6 0.00 0.00 0.00 93 995.7
20260509031015 23 0 0.0 1.6 0.00 0.00 0.00 93 995.6
20260509030514 23 0 0.0 3.2 0.00 0.00 0.00 93 995.6
20260509030014 23 0 0.0 3.2 0.00 0.00 0.00 93 995.6
20260509025516 23 0 0.0 3.2 0.00 0.00 0.00 93 995.4
20260509025014 23 0 0.0 3.2 0.00 0.00 0.00 93 995.2
20260509024515 23 0 0.0 0.0 0.00 0.00 0.00 93 995.2
20260509024014 23 0 0.0 0.0 0.00 0.00 0.00 93 995.2
20260509023514 23 0 0.0 0.0 0.00 0.00 0.00 93 995.2
20260509023241 23 0 0.0 0.0 0.00 0.00 0.00 93 995.3
20260509022514 23 0 0.0 0.0 0.00 0.00 0.00 92 995.2
20260509022015 23 0 0.0 0.0 0.00 0.00 0.00 92 995.2
20260509021515 23 0 0.0 1.6 0.00 0.00 0.00 92 995.1
20260509021014 23 0 0.0 1.6 0.00 0.00 0.00 92 995.1
20260509020515 23 0 0.0 1.6 0.00 0.00 0.00 92 995.0
20260509020014 23 0 0.0 1.6 0.00 0.00 0.00 92 995.2
20260509015514 23 0 0.0 1.6 0.00 0.00 0.00 92 995.1
20260509015236 23 0 0.0 1.6 0.00 0.00 0.00 91 995.1
20260509014514 23 79 0.0 1.6 0.00 0.00 0.00 91 995.0
20260509014015 23 0 0.0 1.6 0.00 0.00 0.00 91 995.1
20260509013514 24 0 0.0 8.0 0.00 0.00 0.00 91 995.2
20260509013015 24 0 0.0 8.0 0.00 0.00 0.00 91 995.2
20260509012513 24 0 0.0 0.0 0.00 0.00 0.00 90 995.1
20260509012015 24 0 0.0 0.0 0.00 0.00 0.00 90 994.9
20260509011511 24 0 0.0 3.2 0.00 0.00 0.00 90 994.8
20260509011005 24 0 0.0 3.2 0.00 0.00 0.00 90 994.8
20260509010506 24 0 0.0 1.6 0.00 0.00 0.00 90 994.8
20260509010230 24 0 0.0 1.6 0.00 0.00 0.00 89 994.7
20260509005506 24 0 0.0 0.0 0.00 0.00 0.00 89 994.6
20260509005006 24 0 0.0 1.6 0.00 0.00 0.00 89 994.6
20260509004506 24 0 0.0 1.6 0.00 0.00 0.00 89 994.6
20260509004006 24 0 0.0 0.0 0.00 0.00 0.00 89 994.4
20260509003506 24 0 0.0 1.6 0.00 0.00 0.00 89 994.5
20260509003006 25 0 0.0 1.6 0.00 0.00 0.00 89 994.6
20260509002726 25 0 0.0 0.0 0.00 0.00 0.00 89 994.7
20260509002057 25 0 0.0 0.0 0.00 0.00 0.00 88 994.8
20260509001001 25 0 0.0 1.6 0.00 0.00 0.00 88 994.9
20260509000503 25 0 0.0 1.6 0.00 0.00 0.00 88 994.9
20260509000227 25 0 0.0 1.6 0.00 0.00 0.00 88 994.8
20260508235503 25 0 0.0 1.6 0.00 0.00 0.00 88 995.0
20260508235002 25 0 0.0 1.6 0.00 0.00 0.00 88 994.9
20260508234503 25 0 0.0 0.0 0.00 0.00 0.00 87 994.9
20260508233958 25 0 0.0 1.6 0.00 0.00 0.00 87 995.0
20260508233458 25 0 0.0 6.4 0.00 0.00 0.00 87 995.0
20260508232959 25 80 0.0 6.4 0.00 0.00 0.00 87 995.0
20260508232457 25 0 0.0 1.6 0.00 0.00 0.00 87 994.9
20260508231958 25 28 0.0 1.6 0.00 0.00 0.00 86 994.9
20260508231459 25 0 0.0 1.6 0.00 0.00 0.00 86 994.9
20260508230959 25 0 0.0 1.6 0.00 0.00 0.00 86 995.0
20260508230459 26 93 0.0 1.6 0.00 0.00 0.00 86 994.9
20260508225959 26 0 0.0 3.2 0.00 0.00 0.00 86 994.9
20260508225456 26 0 0.0 3.2 0.00 0.00 0.00 86 994.9
20260508224955 26 0 0.0 1.6 0.00 0.00 0.00 85 994.9